TimeEDT,TemperatureF,Dew PointF,Humidity,Sea Level PressureIn,VisibilityMPH,Wind Direction,Wind SpeedMPH,Gust SpeedMPH,PrecipitationIn,Events,Conditions,WindDirDegrees,DateUTC
12:16 AM,42.6,38.1,84,30.07,10.0,Calm,Calm,-,N/A,,Clear,0,2013-05-07 04:16:00
12:35 AM,42.6,37.4,82,30.06,10.0,Calm,Calm,-,N/A,,Clear,0,2013-05-07 04:35:00
12:56 AM,41.9,37.9,86,30.07,10.0,Calm,Calm,-,N/A,,Clear,0,2013-05-07 04:56:00
1:15 AM,40.5,37.4,89,30.07,10.0,Calm,Calm,-,N/A,,Clear,0,2013-05-07 05:15:00
1:35 AM,42.4,37.6,83,30.06,10.0,Calm,Calm,-,N/A,,Clear,0,2013-05-07 05:35:00
1:56 AM,41.0,37.4,87,30.06,10.0,Calm,Calm,-,N/A,,Clear,0,2013-05-07 05:56:00
2:15 AM,40.6,37.4,88,30.06,10.0,Calm,Calm,-,N/A,,Clear,0,2013-05-07 06:15:00
2:35 AM,40.3,37.6,90,30.06,10.0,Calm,Calm,-,N/A,,Clear,0,2013-05-07 06:35:00
2:56 AM,39.2,37.6,94,30.05,10.0,Calm,Calm,-,N/A,,Clear,0,2013-05-07 06:56:00
3:15 AM,40.3,38.5,93,30.05,10.0,Calm,Calm,-,N/A,,Clear,0,2013-05-07 07:15:00
3:35 AM,39.6,37.9,94,30.05,10.0,Calm,Calm,-,N/A,,Clear,0,2013-05-07 07:35:00
3:55 AM,39.6,37.6,93,30.05,10.0,North,3.5,-,N/A,,Clear,360,2013-05-07 07:55:00
4:15 AM,39.0,37.4,94,30.06,10.0,Calm,Calm,-,N/A,,Clear,0,2013-05-07 08:15:00
4:36 AM,38.5,36.3,92,30.06,10.0,Calm,Calm,-,N/A,,Clear,0,2013-05-07 08:36:00
4:55 AM,38.7,36.9,93,30.06,10.0,Calm,Calm,-,N/A,,Clear,0,2013-05-07 08:55:00
5:16 AM,37.4,35.8,94,30.06,10.0,Calm,Calm,-,N/A,,Clear,0,2013-05-07 09:16:00
5:36 AM,39.0,37.9,96,30.06,10.0,Calm,Calm,-,N/A,,Clear,0,2013-05-07 09:36:00
6:16 AM,38.7,37.8,97,30.07,10.0,Calm,Calm,-,N/A,,Clear,0,2013-05-07 10:16:00
6:35 AM,38.1,36.9,95,30.07,10.0,Calm,Calm,-,N/A,,Clear,0,2013-05-07 10:35:00
6:55 AM,37.4,36.9,98,30.08,7.0,Calm,Calm,-,N/A,,Clear,0,2013-05-07 10:55:00
7:16 AM,39.4,38.7,97,30.08,10.0,Calm,Calm,-,N/A,,Clear,0,2013-05-07 11:16:00
7:35 AM,43.2,42.4,97,30.09,10.0,Calm,Calm,-,N/A,,Clear,0,2013-05-07 11:35:00
7:55 AM,48.6,44.2,85,30.09,10.0,Calm,Calm,-,N/A,,Clear,0,2013-05-07 11:55:00
8:15 AM,51.1,45.5,81,30.10,10.0,Calm,Calm,-,N/A,,Clear,0,2013-05-07 12:15:00
8:36 AM,52.7,46.4,79,30.10,10.0,North,3.5,-,N/A,,Clear,350,2013-05-07 12:36:00
8:55 AM,54.7,47.1,76,30.11,10.0,Calm,Calm,-,N/A,,Clear,0,2013-05-07 12:55:00
9:15 AM,58.1,46.4,65,30.11,10.0,Calm,Calm,-,N/A,,Clear,0,2013-05-07 13:15:00
9:36 AM,58.6,46.0,63,30.12,10.0,Calm,Calm,-,N/A,,Clear,0,2013-05-07 13:36:00
9:55 AM,63.3,44.1,49,30.12,10.0,Calm,Calm,-,N/A,,Clear,0,2013-05-07 13:55:00
10:16 AM,64.6,45.5,50,30.12,10.0,South,4.6,-,N/A,,Clear,180,2013-05-07 14:16:00
10:35 AM,64.0,42.4,45,30.12,10.0,Calm,Calm,-,N/A,,Clear,0,2013-05-07 14:35:00
10:55 AM,65.7,39.9,39,30.12,10.0,Calm,Calm,-,N/A,,Clear,0,2013-05-07 14:55:00
11:16 AM,67.6,38.7,35,30.12,10.0,Calm,Calm,-,N/A,,Clear,0,2013-05-07 15:16:00
11:56 AM,68.4,37.6,32,30.12,10.0,SSW,4.6,-,N/A,,Clear,200,2013-05-07 15:56:00
12:16 PM,69.3,36.9,30,30.12,10.0,SSW,3.5,-,N/A,,Clear,200,2013-05-07 16:16:00
12:35 PM,69.6,37.8,31,30.11,10.0,SSE,5.8,-,N/A,,Clear,160,2013-05-07 16:35:00
12:56 PM,69.3,36.0,29,30.11,10.0,SSE,5.8,-,N/A,,Clear,150,2013-05-07 16:56:00
1:15 PM,70.2,35.8,28,30.10,10.0,South,4.6,-,N/A,,Clear,180,2013-05-07 17:15:00
1:35 PM,70.3,35.8,28,30.10,10.0,South,4.6,-,N/A,,Clear,190,2013-05-07 17:35:00
1:56 PM,72.1,34.5,25,30.09,10.0,SSW,6.9,-,N/A,,Clear,210,2013-05-07 17:56:00
2:15 PM,71.6,34.5,26,30.09,10.0,SSW,4.6,-,N/A,,Clear,210,2013-05-07 18:15:00
2:35 PM,71.6,34.9,26,30.09,10.0,SW,6.9,-,N/A,,Clear,220,2013-05-07 18:35:00
2:56 PM,71.8,36.0,27,30.08,10.0,South,6.9,-,N/A,,Clear,190,2013-05-07 18:56:00
3:15 PM,71.6,35.1,26,30.08,10.0,SSW,6.9,-,N/A,,Clear,200,2013-05-07 19:15:00
3:35 PM,72.3,32.9,23,30.08,10.0,SE,6.9,-,N/A,,Clear,130,2013-05-07 19:35:00
3:56 PM,71.6,31.1,22,30.07,10.0,South,8.1,-,N/A,,Clear,170,2013-05-07 19:56:00
4:15 PM,71.8,30.2,21,30.07,10.0,SSE,6.9,-,N/A,,Clear,150,2013-05-07 20:15:00
4:36 PM,72.0,31.1,22,30.06,10.0,South,5.8,-,N/A,,Clear,180,2013-05-07 20:36:00
4:55 PM,72.1,30.6,22,30.06,10.0,South,9.2,-,N/A,,Clear,190,2013-05-07 20:55:00
5:15 PM,72.5,30.9,22,30.06,10.0,South,6.9,-,N/A,,Clear,190,2013-05-07 21:15:00
5:36 PM,71.6,30.2,22,30.06,10.0,SSW,8.1,-,N/A,,Clear,200,2013-05-07 21:36:00
5:55 PM,71.4,30.7,22,30.05,10.0,SSE,6.9,-,N/A,,Clear,160,2013-05-07 21:55:00
6:15 PM,70.2,29.5,22,30.05,10.0,South,9.2,-,N/A,,Clear,180,2013-05-07 22:15:00
6:36 PM,68.7,30.0,24,30.06,10.0,South,6.9,-,N/A,,Clear,170,2013-05-07 22:36:00
6:55 PM,66.9,29.7,25,30.06,10.0,South,8.1,-,N/A,,Clear,170,2013-05-07 22:55:00
7:15 PM,66.6,31.6,27,30.05,10.0,SSE,4.6,-,N/A,,Clear,160,2013-05-07 23:15:00
7:36 PM,65.1,31.5,28,30.05,10.0,SSE,5.8,-,N/A,,Clear,160,2013-05-07 23:36:00
7:55 PM,64.4,30.7,28,30.05,10.0,SSE,4.6,-,N/A,,Clear,160,2013-05-07 23:55:00
8:16 PM,62.1,30.7,31,30.05,10.0,South,4.6,-,N/A,,Clear,170,2013-05-08 00:16:00
8:36 PM,59.2,30.6,34,30.05,10.0,SSE,3.5,-,N/A,,Clear,160,2013-05-08 00:36:00
8:55 PM,57.0,30.0,36,30.05,10.0,SSE,5.8,-,N/A,,Clear,150,2013-05-08 00:55:00
9:16 PM,55.4,27.9,35,30.05,10.0,SSE,4.6,-,N/A,,Clear,150,2013-05-08 01:16:00
9:35 PM,52.7,28.4,39,30.05,10.0,SE,3.5,-,N/A,,Clear,140,2013-05-08 01:35:00
9:55 PM,51.3,29.1,43,30.06,10.0,SE,3.5,-,N/A,,Clear,140,2013-05-08 01:55:00
10:16 PM,49.6,30.9,49,30.06,10.0,SE,3.5,-,N/A,,Clear,140,2013-05-08 02:16:00
10:35 PM,48.6,31.8,52,30.06,10.0,SSE,4.6,-,N/A,,Clear,150,2013-05-08 02:35:00
10:56 PM,48.0,32.2,54,30.06,10.0,SSE,3.5,-,N/A,,Clear,150,2013-05-08 02:56:00
11:15 PM,46.2,32.5,59,30.06,10.0,Calm,Calm,-,N/A,,Clear,0,2013-05-08 03:15:00
11:35 PM,46.0,33.6,62,30.06,10.0,Calm,Calm,-,N/A,,Clear,0,2013-05-08 03:35:00
11:56 PM,46.0,33.8,62,30.06,10.0,Calm,Calm,-,N/A,,Clear,0,2013-05-08 03:56:00